This is the latest recevied weather packets stored in our database for station/object KE8AFF-13. If no packets are shown the sender has not sent any weather packets the latest 1 day(s).
| Time | Temp. | Humidity | Pressure | Rain* | Wind** | Luminosity | Snow |
|---|---|---|---|---|---|---|---|
| 1778035659 | 8.33° C | 99% | 1008.6 hPa | 1.27 mm | - | 0 W/m² | - |
| 1778034749 | 8.33° C | 99% | 1009 hPa | 1.27 mm | - | 0 W/m² | - |
| 1778034445 | 8.33° C | 99% | 1008.9 hPa | 1.27 mm | - | 0 W/m² | - |
| 1778034143 | 8.33° C | 99% | 1008.8 hPa | 1.78 mm | - | 0 W/m² | - |
| 1778033841 | 8.33° C | 99% | 1009.1 hPa | 3.05 mm | - | 0 W/m² | - |
| 1778033539 | 8.33° C | 99% | 1008.6 hPa | 2.29 mm | - | 0 W/m² | - |
| 1778032933 | 8.89° C | 99% | 1008.8 hPa | 3.05 mm | - | 0 W/m² | - |
| 1778032630 | 9.44° C | 99% | 1008.6 hPa | 4.32 mm | - | 0 W/m² | - |
| 1778031720 | 9.44° C | 99% | 1008.3 hPa | 3.05 mm | - | 0 W/m² | - |
| 1778031418 | 9.44° C | 99% | 1008 hPa | 3.05 mm | - | 0 W/m² | - |
| 1778031115 | 9.44° C | 99% | 1008.2 hPa | 2.29 mm | - | 0 W/m² | - |
| 1778030811 | 9.44° C | 99% | 1008 hPa | 1.78 mm | - | 0 W/m² | - |
| 1778030508 | 9.44° C | 99% | 1007.8 hPa | 1.78 mm | - | 0 W/m² | - |
| 1778030206 | 9.44° C | 99% | 1008 hPa | 1.78 mm | - | 0 W/m² | - |
| 1778028994 | 9.44° C | 99% | 1007.9 hPa | 2.29 mm | - | 0 W/m² | - |
| 1778028692 | 10° C | 99% | 1007.5 hPa | 2.29 mm | - | 0 W/m² | - |
| 1778028387 | 10° C | 99% | 1007.8 hPa | 3.05 mm | - | 0 W/m² | - |
| 1778027781 | 10° C | 99% | 1007.7 hPa | 7.87 mm | - | 0 W/m² | - |
| 1778027477 | 10° C | 99% | 1007.6 hPa | 8.89 mm | - | 0 W/m² | - |
| 1778027173 | 10° C | 99% | 1007.5 hPa | 7.11 mm | - | 0 W/m² | - |
| 1778026869 | 10° C | 99% | 1007.6 hPa | 5.33 mm | - | 0 W/m² | - |
| 1778025960 | 11.11° C | 99% | 1007.3 hPa | 4.83 mm | - | 0 W/m² | - |
| 1778025355 | 11.67° C | 99% | 1007.1 hPa | 3.05 mm | - | 0 W/m² | - |
| 1778022631 | 12.22° C | 99% | 1006.8 hPa | 0 mm | - | 25 W/m² | - |
| 1778021721 | 12.22° C | 99% | 1007 hPa | 0.51 mm | - | 11 W/m² | - |
* Rain latest hour (hover to see other rain measurements)
** Current wind speed in m/s (hover to see current wind gust speed)